Location: Cosy Dell
(34.2789°N, 117.4537°W)
Time: 12:29:26
(UTC+00:00)

SL-27 R/B - Pass Details

Date: 14 July 2020
Orbit: 420 x 470 km, 74.7° (Epoch: 08 August)

Event Time Altitude Azimuth Distance (km) Brightness Sun altitude
Exits shadow 11:42:14 20° 249° (WSW) 1,109 3.8 -12.5°
Maximum altitude 11:43:46 28° 290° (WNW) 884 3.6 -12.2°
Drops below altitude 10° 11:46:49 10° 352° (N) 1,580 5.5 -11.7°
Sets 11:49:05 0° 4° (N) 2,445 6.8 -11.3°
